| time (UTC) | temp F | wind direction | speed MPH | gust MPH | rain 1hr in | rain 24hr in | rain mn in | humidity % | barometer mb |
| 20260505003743 | 44 | 0 | 6.0 | 12.0 | 0.00 | 0.00 | 0.00 | 68 | 1012.8 |
| 20260505003238 | 45 | 0 | 5.0 | 10.0 | 0.00 | 0.00 | 0.00 | 68 | 1012.8 |
| 20260505002514 | 45 | 150 | 7.0 | 12.0 | 0.00 | 0.00 | 0.00 | 69 | 1012.8 |
| 20260505002015 | 45 | 0 | 8.0 | 12.0 | 0.00 | 0.00 | 0.00 | 69 | 1012.8 |
| 20260505001514 | 45 | 127 | 6.0 | 12.0 | 0.00 | 0.00 | 0.00 | 70 | 1012.8 |
| 20260505001238 | 45 | 114 | 4.0 | 11.0 | 0.00 | 0.00 | 0.00 | 70 | 1012.8 |
| 20260505000513 | 45 | 0 | 3.0 | 10.0 | 0.00 | 0.00 | 0.00 | 69 | 1013.0 |
| 20260505000015 | 45 | 138 | 3.0 | 7.0 | 0.00 | 0.00 | 0.00 | 67 | 1012.8 |
| 20260504235512 | 45 | 138 | 2.0 | 7.0 | 0.00 | 0.00 | 0.00 | 68 | 1012.8 |
| 20260504235011 | 45 | 105 | 1.0 | 5.0 | 0.00 | 0.00 | 0.00 | 67 | 1013.0 |
| 20260504234513 | 45 | 90 | 2.0 | 5.0 | 0.00 | 0.00 | 0.00 | 67 | 1013.0 |
| 20260504234010 | 45 | 92 | 3.0 | 7.0 | 0.00 | 0.00 | 0.00 | 66 | 1012.7 |
| 20260504233509 | 45 | 88 | 2.0 | 7.0 | 0.00 | 0.00 | 0.00 | 67 | 1012.7 |
| 20260504233009 | 45 | 83 | 1.0 | 5.0 | 0.00 | 0.00 | 0.00 | 66 | 1013.0 |
| 20260504233001 | 45 | 82 | 1.0 | 5.0 | 0.00 | 0.00 | 0.00 | 65 | 1013.0 |
| 20260504232009 | 45 | 82 | 2.0 | 7.0 | 0.00 | 0.00 | 0.00 | 65 | 1012.8 |
| 20260504231510 | 45 | 0 | 2.0 | 7.0 | 0.00 | 0.00 | 0.00 | 66 | 1012.5 |
| 20260504231010 | 45 | 65 | 2.0 | 6.0 | 0.00 | 0.00 | 0.00 | 65 | 1012.7 |
| 20260504230511 | 45 | 65 | 2.0 | 6.0 | 0.00 | 0.00 | 0.00 | 68 | 1012.6 |
| 20260504230009 | 45 | 69 | 2.0 | 6.0 | 0.00 | 0.00 | 0.00 | 66 | 1012.3 |
| 20260504225729 | 46 | 55 | 3.0 | 9.0 | 0.00 | 0.00 | 0.00 | 66 | 1012.5 |
| 20260504225009 | 46 | 55 | 2.0 | 9.0 | 0.00 | 0.00 | 0.00 | 65 | 1012.5 |
| 20260504224510 | 46 | 32 | 1.0 | 5.0 | 0.00 | 0.00 | 0.00 | 65 | 1012.6 |
| 20260504224234 | 46 | 32 | 1.0 | 6.0 | 0.00 | 0.00 | 0.00 | 65 | 1013.1 |
| 20260504223510 | 46 | 33 | 2.0 | 6.0 | 0.00 | 0.00 | 0.00 | 67 | 1013.1 |
| 20260504223010 | 47 | 355 | 3.0 | 9.0 | 0.00 | 0.00 | 0.00 | 65 | 1013.2 |
| 20260504222511 | 47 | 348 | 4.0 | 13.0 | 0.00 | 0.00 | 0.00 | 67 | 1013.4 |
| 20260504222009 | 47 | 0 | 4.0 | 13.0 | 0.00 | 0.00 | 0.00 | 65 | 1013.4 |
| 20260504221510 | 47 | 323 | 3.0 | 10.0 | 0.00 | 0.00 | 0.00 | 60 | 1013.5 |
| 20260504221229 | 47 | 0 | 2.0 | 10.0 | 0.00 | 0.00 | 0.00 | 56 | 1013.4 |
| 20260504220510 | 48 | 90 | 3.0 | 10.0 | 0.00 | 0.00 | 0.00 | 54 | 1013.5 |
| 20260504220230 | 48 | 0 | 5.0 | 11.0 | 0.00 | 0.00 | 0.00 | 53 | 1012.7 |
| 20260504215507 | 49 | 94 | 5.0 | 11.0 | 0.00 | 0.00 | 0.00 | 51 | 1012.6 |
| 20260504215458 | 49 | 0 | 3.0 | 9.0 | 0.00 | 0.00 | 0.00 | 49 | 1012.6 |
| 20260504214508 | 50 | 0 | 3.0 | 9.0 | 0.00 | 0.00 | 0.00 | 48 | 1012.6 |
| 20260504214443 | 51 | 70 | 4.0 | 11.0 | 0.00 | 0.00 | 0.00 | 46 | 1012.6 |
| 20260504213456 | 51 | 77 | 6.0 | 12.0 | 0.00 | 0.00 | 0.00 | 44 | 1012.6 |
| 20260504212950 | 52 | 79 | 7.0 | 15.0 | 0.00 | 0.00 | 0.00 | 44 | 1012.3 |
| 20260504212444 | 53 | 0 | 7.0 | 15.0 | 0.00 | 0.00 | 0.00 | 42 | 1012.5 |
| 20260504211937 | 54 | 104 | 8.0 | 15.0 | 0.00 | 0.00 | 0.00 | 39 | 1012.5 |
| 20260504211432 | 55 | 81 | 8.0 | 17.0 | 0.00 | 0.00 | 0.00 | 37 | 1012.3 |
| 20260504210926 | 57 | 0 | 6.0 | 17.0 | 0.00 | 0.00 | 0.00 | 35 | 1012.3 |
| 20260504210420 | 58 | 69 | 5.0 | 11.0 | 0.00 | 0.00 | 0.00 | 32 | 1012.2 |
| 20260504205915 | 58 | 77 | 5.0 | 11.0 | 0.00 | 0.00 | 0.00 | 31 | 1012.2 |
| 20260504205630 | 58 | 65 | 5.0 | 9.0 | 0.00 | 0.00 | 0.00 | 29 | 1012.2 |
| 20260504204902 | 59 | 77 | 5.0 | 10.0 | 0.00 | 0.00 | 0.00 | 28 | 1012.3 |
| 20260504204356 | 59 | 31 | 5.0 | 10.0 | 0.00 | 0.00 | 0.00 | 30 | 1012.5 |
| 20260504204330 | 59 | 329 | 7.0 | 13.0 | 0.00 | 0.00 | 0.00 | 32 | 1012.6 |
| 20260504203344 | 58 | 0 | 9.0 | 15.0 | 0.00 | 0.00 | 0.00 | 33 | 1012.6 |
| 20260504202837 | 57 | 325 | 9.0 | 16.0 | 0.00 | 0.00 | 0.00 | 35 | 1012.6 |
| 20260504202332 | 55 | 327 | 7.0 | 16.0 | 0.00 | 0.00 | 0.00 | 42 | 1012.6 |
| 20260504201826 | 54 | 239 | 9.0 | 17.0 | 0.00 | 0.00 | 0.00 | 39 | 1012.6 |
| 20260504201320 | 53 | 329 | 11.0 | 17.0 | 0.00 | 0.00 | 0.00 | 44 | 1012.6 |
| 20260504200814 | 52 | 237 | 11.0 | 19.0 | 0.00 | 0.00 | 0.00 | 40 | 1012.8 |
| 20260504200308 | 51 | 0 | 12.0 | 19.0 | 0.00 | 0.00 | 0.00 | 45 | 1012.8 |
| 20260504195801 | 50 | 213 | 13.0 | 23.0 | 0.00 | 0.00 | 0.00 | 49 | 1013.0 |
| 20260504195256 | 49 | 301 | 15.0 | 24.0 | 0.00 | 0.00 | 0.00 | 50 | 1013.0 |
| 20260504194749 | 49 | 234 | 17.0 | 27.0 | 0.00 | 0.00 | 0.00 | 48 | 1013.0 |
| 20260504194503 | 50 | 0 | 15.0 | 27.0 | 0.00 | 0.00 | 0.00 | 47 | 1013.1 |
| 20260504193738 | 50 | 237 | 12.0 | 22.0 | 0.00 | 0.00 | 0.00 | 44 | 1012.8 |
| 20260504193452 | 50 | 0 | 14.0 | 27.0 | 0.00 | 0.00 | 0.00 | 43 | 1012.8 |
| 20260504192726 | 51 | 233 | 16.0 | 27.0 | 0.00 | 0.00 | 0.00 | 42 | 1013.0 |
| 20260504192220 | 52 | 231 | 16.0 | 25.0 | 0.00 | 0.00 | 0.00 | 42 | 1013.0 |
| 20260504191714 | 53 | 237 | 14.0 | 26.0 | 0.00 | 0.00 | 0.00 | 41 | 1013.0 |
| 20260504191208 | 53 | 0 | 14.0 | 26.0 | 0.00 | 0.00 | 0.00 | 42 | 1012.8 |
| 20260504190930 | 55 | 0 | 14.0 | 25.0 | 0.00 | 0.00 | 0.00 | 42 | 1013.0 |
| 20260504190156 | 55 | 306 | 14.0 | 23.0 | 0.00 | 0.00 | 0.00 | 40 | 1013.0 |
| 20260504190127 | 56 | 0 | 14.0 | 24.0 | 0.00 | 0.00 | 0.00 | 38 | 1012.8 |
| 20260504185144 | 56 | 311 | 16.0 | 25.0 | 0.00 | 0.00 | 0.00 | 37 | 1012.8 |
| 20260504184638 | 56 | 228 | 15.0 | 25.0 | 0.00 | 0.00 | 0.00 | 35 | 1013.0 |
| 20260504184132 | 56 | 318 | 11.0 | 23.0 | 0.00 | 0.00 | 0.00 | 37 | 1013.1 |
| 20260504183627 | 56 | 295 | 10.0 | 19.0 | 0.00 | 0.00 | 0.00 | 37 | 1013.1 |
| 20260504183120 | 56 | 308 | 13.0 | 22.0 | 0.00 | 0.00 | 0.00 | 36 | 1013.4 |
| 20260504182614 | 57 | 311 | 13.0 | 22.0 | 0.00 | 0.00 | 0.00 | 34 | 1013.2 |
| 20260504182108 | 57 | 312 | 11.0 | 21.0 | 0.00 | 0.00 | 0.00 | 36 | 1013.4 |
| 20260504181602 | 56 | 0 | 11.0 | 18.0 | 0.00 | 0.00 | 0.00 | 37 | 1013.2 |
| 20260504181056 | 56 | 295 | 10.0 | 19.0 | 0.00 | 0.00 | 0.00 | 36 | 1013.2 |
| 20260504180550 | 56 | 303 | 10.0 | 21.0 | 0.00 | 0.00 | 0.00 | 36 | 1013.4 |
| 20260504180044 | 56 | 311 | 10.0 | 21.0 | 0.00 | 0.00 | 0.00 | 35 | 1013.6 |
| 20260504175538 | 55 | 0 | 8.0 | 17.0 | 0.00 | 0.00 | 0.00 | 37 | 1013.6 |
| 20260504175032 | 54 | 342 | 8.0 | 15.0 | 0.00 | 0.00 | 0.00 | 40 | 1013.6 |
| 20260504174526 | 53 | 233 | 8.0 | 15.0 | 0.00 | 0.00 | 0.00 | 39 | 1013.8 |
| 20260504174020 | 53 | 295 | 8.0 | 15.0 | 0.00 | 0.00 | 0.00 | 41 | 1013.9 |
| 20260504173736 | 52 | 304 | 6.0 | 15.0 | 0.00 | 0.00 | 0.00 | 40 | 1014.0 |
| 20260504173014 | 52 | 232 | 7.0 | 16.0 | 0.00 | 0.00 | 0.00 | 41 | 1014.2 |
| 20260504172514 | 52 | 304 | 11.0 | 20.0 | 0.00 | 0.00 | 0.00 | 42 | 1014.3 |
| 20260504172014 | 52 | 238 | 11.0 | 20.0 | 0.00 | 0.00 | 0.00 | 40 | 1014.4 |
| 20260504171515 | 51 | 338 | 11.0 | 21.0 | 0.00 | 0.00 | 0.00 | 42 | 1014.2 |
| 20260504171015 | 51 | 0 | 10.0 | 21.0 | 0.00 | 0.00 | 0.00 | 42 | 1014.3 |
| 20260504171003 | 51 | 320 | 10.0 | 18.0 | 0.00 | 0.00 | 0.00 | 42 | 1014.2 |
| 20260504151004 | 46 | 0 | 16.0 | 25.0 | 0.00 | 0.00 | 0.00 | 45 | 1014.0 |
| 20260504150502 | 46 | 0 | 17.0 | 30.0 | 0.00 | 0.00 | 0.00 | 46 | 1014.0 |
| 20260504141149 | 45 | 319 | 17.0 | 29.0 | 0.00 | 0.00 | 0.00 | 45 | 1013.9 |
| 20260504140421 | 45 | 297 | 18.0 | 29.0 | 0.00 | 0.00 | 0.00 | 45 | 1014.0 |
| 20260504140138 | 45 | 232 | 17.0 | 26.0 | 0.00 | 0.00 | 0.00 | 45 | 1014.0 |
| 20260504130814 | 44 | 236 | 7.0 | 16.0 | 0.00 | 0.00 | 0.00 | 40 | 1014.0 |
| 20260504130309 | 44 | 205 | 8.0 | 16.0 | 0.00 | 0.00 | 0.00 | 39 | 1014.0 |
| 20260504120157 | 42 | 300 | 8.0 | 12.0 | 0.00 | 0.00 | 0.00 | 35 | 1013.5 |
| 20260504110400 | 43 | 304 | 8.0 | 10.0 | 0.00 | 0.00 | 0.00 | 34 | 1013.8 |
| 20260504100138 | 43 | 0 | 8.0 | 12.0 | 0.00 | 0.00 | 0.00 | 35 | 1014.2 |
| 20260504081604 | 45 | 0 | 9.0 | 14.0 | 0.00 | 0.00 | 0.00 | 35 | 1014.8 |
| 20260504081058 | 45 | 235 | 10.0 | 14.0 | 0.00 | 0.00 | 0.00 | 35 | 1014.8 |
| 20260504080552 | 45 | 0 | 10.0 | 14.0 | 0.00 | 0.00 | 0.00 | 36 | 1014.9 |
| 20260504070220 | 44 | 227 | 10.0 | 16.0 | 0.00 | 0.00 | 0.00 | 39 | 1015.5 |
| 20260504050616 | 44 | 0 | 7.0 | 10.0 | 0.00 | 0.00 | 0.00 | 42 | 1016.4 |
| 20260504045843 | 44 | 0 | 7.0 | 11.0 | 0.00 | 0.00 | 0.00 | 41 | 1016.4 |
| 20260504045606 | 45 | 238 | 7.0 | 11.0 | 0.00 | 0.00 | 0.00 | 41 | 1016.5 |
| 20260504044832 | 45 | 238 | 7.0 | 11.0 | 0.00 | 0.00 | 0.00 | 41 | 1016.5 |
| 20260504044327 | 45 | 0 | 7.0 | 11.0 | 0.00 | 0.00 | 0.00 | 40 | 1016.5 |
| 20260504043820 | 45 | 0 | 7.0 | 11.0 | 0.00 | 0.00 | 0.00 | 39 | 1016.5 |
| 20260504043315 | 46 | 0 | 7.0 | 11.0 | 0.00 | 0.00 | 0.00 | 39 | 1016.5 |
| 20260504042808 | 46 | 0 | 8.0 | 11.0 | 0.00 | 0.00 | 0.00 | 39 | 1016.5 |
| 20260504042304 | 46 | 0 | 8.0 | 13.0 | 0.00 | 0.00 | 0.00 | 38 | 1016.6 |
| 20260504041755 | 47 | 0 | 8.0 | 13.0 | 0.00 | 0.00 | 0.00 | 38 | 1016.5 |
| 20260504041250 | 47 | 235 | 8.0 | 12.0 | 0.00 | 0.00 | 0.00 | 38 | 1016.6 |
| 20260504040744 | 47 | 0 | 8.0 | 14.0 | 0.00 | 0.00 | 0.00 | 38 | 1016.8 |
| 20260504040502 | 47 | 0 | 8.0 | 14.0 | 0.00 | 0.00 | 0.00 | 37 | 1016.6 |
| 20260504035732 | 48 | 0 | 8.0 | 12.0 | 0.00 | 0.00 | 0.00 | 37 | 1016.8 |
| 20260504035226 | 48 | 298 | 9.0 | 14.0 | 0.00 | 0.00 | 0.00 | 37 | 1016.8 |
| 20260504034720 | 48 | 296 | 9.0 | 14.0 | 0.00 | 0.00 | 0.00 | 37 | 1016.8 |
| 20260504034214 | 48 | 0 | 9.0 | 13.0 | 0.00 | 0.00 | 0.00 | 38 | 1016.9 |
| 20260504033708 | 48 | 0 | 9.0 | 16.0 | 0.00 | 0.00 | 0.00 | 37 | 1016.9 |
| 20260504033202 | 48 | 0 | 8.0 | 16.0 | 0.00 | 0.00 | 0.00 | 37 | 1016.8 |
| 20260504032656 | 47 | 243 | 9.0 | 15.0 | 0.00 | 0.00 | 0.00 | 38 | 1016.8 |
| 20260504032150 | 47 | 202 | 10.0 | 17.0 | 0.00 | 0.00 | 0.00 | 39 | 1016.8 |
| 20260504031643 | 47 | 235 | 11.0 | 19.0 | 0.00 | 0.00 | 0.00 | 40 | 1016.9 |
| 20260504031138 | 47 | 223 | 9.0 | 19.0 | 0.00 | 0.00 | 0.00 | 38 | 1016.9 |
| 20260504030632 | 47 | 0 | 6.0 | 12.0 | 0.00 | 0.00 | 0.00 | 40 | 1017.0 |
| 20260504030126 | 47 | 232 | 5.0 | 12.0 | 0.00 | 0.00 | 0.00 | 40 | 1016.9 |
| 20260504025619 | 48 | 0 | 5.0 | 9.0 | 0.00 | 0.00 | 0.00 | 41 | 1016.9 |
| 20260504025114 | 48 | 294 | 5.0 | 9.0 | 0.00 | 0.00 | 0.00 | 40 | 1016.9 |
| 20260504024611 | 48 | 0 | 6.0 | 9.0 | 0.00 | 0.00 | 0.00 | 39 | 1016.8 |
| 20260504024112 | 48 | 0 | 6.0 | 12.0 | 0.00 | 0.00 | 0.00 | 38 | 1016.8 |
| 20260504023612 | 49 | 0 | 6.0 | 12.0 | 0.00 | 0.00 | 0.00 | 38 | 1016.8 |
| 20260504023111 | 49 | 231 | 6.0 | 11.0 | 0.00 | 0.00 | 0.00 | 38 | 1016.8 |
| 20260504022836 | 49 | 231 | 7.0 | 12.0 | 0.00 | 0.00 | 0.00 | 39 | 1016.6 |
| 20260504022111 | 49 | 218 | 7.0 | 12.0 | 0.00 | 0.00 | 0.00 | 38 | 1016.6 |
| 20260504021611 | 49 | 213 | 7.0 | 14.0 | 0.00 | 0.00 | 0.00 | 38 | 1016.6 |
| 20260504021110 | 49 | 222 | 7.0 | 14.0 | 0.00 | 0.00 | 0.00 | 37 | 1016.5 |
| 20260504020612 | 49 | 196 | 6.0 | 12.0 | 0.00 | 0.00 | 0.00 | 37 | 1016.5 |
| 20260504020112 | 50 | 207 | 5.0 | 11.0 | 0.00 | 0.00 | 0.00 | 38 | 1016.4 |
| 20260504015611 | 50 | 194 | 6.0 | 12.0 | 0.00 | 0.00 | 0.00 | 37 | 1016.6 |
| 20260504015111 | 50 | 187 | 7.0 | 13.0 | 0.00 | 0.00 | 0.00 | 37 | 1016.5 |
| 20260504014612 | 50 | 235 | 7.0 | 13.0 | 0.00 | 0.00 | 0.00 | 36 | 1016.4 |
| 20260504014334 | 51 | 0 | 7.0 | 13.0 | 0.00 | 0.00 | 0.00 | 36 | 1016.4 |
| 20260504013610 | 51 | 0 | 8.0 | 13.0 | 0.00 | 0.00 | 0.00 | 36 | 1016.5 |
| 20260504013111 | 51 | 0 | 7.0 | 13.0 | 0.00 | 0.00 | 0.00 | 37 | 1016.5 |
| 20260504012835 | 51 | 237 | 5.0 | 12.0 | 0.00 | 0.00 | 0.00 | 35 | 1016.5 |
| 20260504012110 | 52 | 0 | 4.0 | 9.0 | 0.00 | 0.00 | 0.00 | 37 | 1016.5 |
| 20260504011611 | 52 | 301 | 5.0 | 11.0 | 0.00 | 0.00 | 0.00 | 36 | 1016.5 |
| 20260504011111 | 52 | 303 | 6.0 | 12.0 | 0.00 | 0.00 | 0.00 | 36 | 1016.6 |
| 20260504010611 | 52 | 306 | 7.0 | 13.0 | 0.00 | 0.00 | 0.00 | 35 | 1016.6 |
| 20260504010110 | 53 | 307 | 8.0 | 14.0 | 0.00 | 0.00 | 0.00 | 35 | 1016.6 |
| 20260504005610 | 53 | 317 | 9.0 | 17.0 | 0.00 | 0.00 | 0.00 | 35 | 1016.5 |
| 20260504005110 | 53 | 327 | 10.0 | 19.0 | 0.00 | 0.00 | 0.00 | 34 | 1016.5 |
| 20260504004610 | 53 | 0 | 11.0 | 21.0 | 0.00 | 0.00 | 0.00 | 34 | 1016.5 |
| 20260504004322 | 53 | 0 | 11.0 | 19.0 | 0.00 | 0.00 | 0.00 | 34 | 1016.6 |
| 20260504004204 | 53 | 0 | 11.0 | 21.0 | 0.00 | 0.00 | 0.00 | 35 | 1016.5 |